User: anonymous   Login
Location: Starry Hill Observatory
(46.8582°N, 122.3590°W)
Time: 07:39:07
(UTC-08:00)
Language:

Cosmos 1300 Rocket - Orbit

View from above orbital plane
View from above orbital plane
View from above satellite
View from above satellite

Ground track
Ground track

The orbit data is extracted from the following two-line orbital elements,

1 12786U 81082B   16036.53456950  .00000187  00000-0  19256-4 0  9999
2 12786  82.4869  76.7132 0019205  97.1679 263.1721 14.84578671860978
Epoch (UTC): 05 February 2016 12:49:46
Eccentricity: 0.0019205
inclination: 82.4869°
perigee height: 601 km
apogee height: 628 km
right ascension of ascending node: 76.7132°
argument of perigee: 97.1679°
revolutions per day: 14.84578671
mean anomaly at epoch: 263.1721°
orbit number at epoch: 86097

The dashed part of the orbit path shows where the satellite is in the earth's shadow,  

DLR